User: anonymous   Login
Location: Unspecified
(0.0000°N, 0.0000°E)
Time: 05:12:58
(UTC+00:00)
Language:

Kyokko - Orbit

View from above orbital plane
View from above orbital plane
View from above satellite
View from above satellite

Ground track
Ground track

The orbit data is extracted from the following two-line orbital elements,

1 10664U 78014A   18267.45815035 -.00000037 +00000-0 +28850-5 0  9991
2 10664 065.3658 276.2608 1909378 339.3753 013.9161 10.75477847579195
Epoch (UTC): 24 September 2018 10:59:44
Eccentricity: 0.1909378
inclination: 65.3658°
perigee height: 636 km
apogee height: 3947 km
right ascension of ascending node: 276.2608°
argument of perigee: 339.3753°
revolutions per day: 10.75477847
mean anomaly at epoch: 13.9161°
orbit number at epoch: 57919

The dashed part of the orbit path shows where the satellite is in the earth's shadow,  

DLR